This is the latest recevied weather packets stored in our database for station/object KC9NPJ-13. If no packets are shown the sender has not sent any weather packets the latest 10 day(s).
| Time | Temp. | Humidity | Pressure | Rain* | Wind** | Luminosity | Snow |
|---|---|---|---|---|---|---|---|
| 1777999140 | 11.11° C | 91% | 1010.1 hPa | 0.25 mm | - | - | - |
| 1777998841 | 11.11° C | 91% | 1009.9 hPa | 0.25 mm | - | - | - |
| 1777998541 | 11.11° C | 91% | 1010 hPa | 0.25 mm | - | - | - |
| 1777998241 | 11.11° C | 91% | 1009.8 hPa | 0.25 mm | - | - | - |
| 1777997941 | 11.11° C | 90% | 1009.7 hPa | 0.25 mm | - | - | - |
| 1777997641 | 11.11° C | 91% | 1009.6 hPa | 0.25 mm | - | - | - |
| 1777997341 | 11.11° C | 91% | 1009.6 hPa | 0.25 mm | - | - | - |
| 1777997041 | 11.11° C | 91% | 1009.5 hPa | 0.25 mm | - | - | - |
| 1777996741 | 11.11° C | 91% | 1009.3 hPa | 0.51 mm | - | - | - |
| 1777996441 | 11.11° C | 92% | 1009.2 hPa | 0.25 mm | - | - | - |
| 1777996141 | 11.11° C | 92% | 1009.1 hPa | 0.51 mm | - | - | - |
| 1777995841 | 11.11° C | 92% | 1009 hPa | 0.51 mm | - | - | - |
| 1777995541 | 11.11° C | 92% | 1008.8 hPa | 0.51 mm | - | - | - |
| 1777995241 | 11.11° C | 92% | 1008.7 hPa | 0.76 mm | - | - | - |
| 1777994941 | 11.67° C | 91% | 1008.6 hPa | 1.52 mm | - | - | - |
| 1777994641 | 11.67° C | 91% | 1008.7 hPa | 2.29 mm | - | - | - |
| 1777994341 | 11.67° C | 91% | 1008.8 hPa | 3.3 mm | - | - | - |
| 1777994041 | 12.22° C | 92% | 1009.2 hPa | 4.06 mm | - | - | - |
| 1777993741 | 12.22° C | 91% | 1009.4 hPa | 5.08 mm | - | - | - |
| 1777993441 | 12.78° C | 92% | 1009.2 hPa | 5.84 mm | - | - | - |
| 1777993141 | 12.78° C | 92% | 1009 hPa | 6.1 mm | - | - | - |
| 1777992841 | 13.33° C | 92% | 1009 hPa | 6.6 mm | - | - | - |
| 1777992541 | 13.33° C | 93% | 1008.8 hPa | 7.11 mm | - | - | - |
| 1777992241 | 13.89° C | 93% | 1009.1 hPa | 7.37 mm | - | - | - |
| 1777991941 | 13.89° C | 92% | 1009.6 hPa | 7.37 mm | - | - | - |
* Rain latest hour (hover to see other rain measurements)
** Current wind speed in m/s (hover to see current wind gust speed)